STARLINK-2459 (48119 NORAD) Tracking and Keplerian Element Data

This shows tracking and keplerian element data for the satellite.

Feedback or suggestion? Click here.




ElementValue
Catalog48119
NameSTARLINK-2459
Epoch Orbit198
Epoch Day173.91668981
Epoch Year2021
RAAN321.7173
Inclination53.046
Eccentricity0.0004198
Argument of Perigee359.0927
Mean Anonmoly7.0936
Mean Motion15.64951158
Decay Rate-0.01107007
L11 48119U 21027AD 21173.91668981 -.01107007 00000-0 -12194-1 0 9993
L22 48119 53.0460 321.7173 0004198 359.0927 7.0936 15.64951158 1982

Live tracking and technical data element details for STARLINK-2459 (NORAD 48119). STARLINK-2459 can be tracked NOW for your location showing map with azimuth and elevation plus other details from your city location.

Track the satellite on the map from your city or location and see movement details for azimuth, elevation, latitude, longitude, range, height, and movement on the map or in text.







IsCatalogInMostPopularTable: catalog: 48119, numindb: 35
Update: records affected: 1



GetName: 48119 STARLINK-2459

Hit Count: updated at: Thu, 24 Jun 2021 02:34:43 GMT